Regional Weather Roundup
Issued by NWS Nashville, TN

Home | Current Version | Previous Version | Text Only | Print | Product List | Glossary On
Versions: 1 2 3 4 5 6 7 8 9 10 11 12 13 14 15 16 17 18 19 20 21 22 23 24 25 26 27
000
ASUS44 KOHX 011910
RWROHX
MIDDLE TENNESSEE HOURLY WEATHER ROUNDUP
NATIONAL WEATHER SERVICE NASHVILLE TN
200 PM CDT SAT OCT 01 2016

NOTE: "FAIR" INDICATES FEW OR NO CLOUDS BELOW 12,000 FEET WITH
NO SIGNIFICANT WEATHER AND/OR OBSTRUCTIONS TO VISIBILITY.

* THESE REPORTS ARE NOT UNDER NWS QUALITY CONTROL AND MAY NOT
  REPORT WEATHER SUCH AS PRECIPITATION AND FOG.


TNZ005>011-023>034-057-059-062>066-078-080-012000
...NORTHERN MIDDLE TENNESSEE...

CITY           SKY/WX    TMP DP  RH WIND       PRES   REMARKS
CLARKSVILLE    CLOUDY    69  58  67 SW7       30.05F
CROSSVILLE     CLOUDY    67  50  54 W8        30.08F
GALLATIN       CLOUDY    70  59  68 VRB6G14   30.08F
DICKSON        PTSUNNY   63  57  80 SW3       30.07F
LEBANON        PTSUNNY   71  57  61 W9        30.04F
NASHVILLE      PTSUNNY   72  56  57 W8G16     30.06F
WEST NASHVILLE CLOUDY    66  57  72 W8        30.06F
PORTLAND       CLOUDY    68  59  73 SW7       30.05F
ROCKWOOD       CLOUDY    68  54  60 VRB6      30.08F
SMYRNA         CLOUDY    73  57  57 SW6       30.06F
SPARTA         PTSUNNY   75  55  50 CALM      30.05F
$$
TNZ056-058-060-061-075>077-079-093>097-012000
...SOUTHERN MIDDLE TENNESSEE...

CITY           SKY/WX    TMP DP  RH WIND       PRES   REMARKS
COLUMBIA       PTSUNNY   72  61  68 SW7       30.05F
FAYETTEVILLE   PTSUNNY   75  54  46 W8G15     30.05F
LEWISBURG      PTSUNNY   77  55  46 VRB6      30.05F
MCMINNVILLE    CLOUDY    73  54  49 SW8       30.06F
MURFREESBORO   MOCLDY    74  55  51 NW6       30.04F
SHELBYVILLE    PTSUNNY   77  55  47 W8        30.06F
TULLAHOMA      CLOUDY    72  52  49 SW6       30.07F
WINCHESTER     CLOUDY    72  54  53 W6        30.06F
$$


...KEY TO REMARKS...
VSB - VISIBILITY IN MILES
WCI - WIND CHILL INDEX
HX  - HEAT INDEX





USA.gov is the U.S. government's official web portal to all federal, state and local government web resources and services.